Regional Weather Roundup
Issued by NWS

Home | Current Version | Previous Version | Text Only | Print | Product List | Glossary Off
Versions: 1 2 3 4 5 6 7 8 9 10 11 12 13 14 15 16 17 18 19 20 21 22 23 24 25 26 27 28 29 30 31 32 33 34 35 36 37 38 39 40 41 42 43 44 45 46 47 48 49 50

891
ASUS44 KMEG 171410
RWRTN
TENNESSEE HOURLY STATE WEATHER ROUNDUP
NATIONAL WEATHER SERVICE MEMPHIS TN
800 AM CST WED JAN 17 2018

TNZ002-004-019-021-049-052-054-088>092-171500-
WEST TENNESSEE

CITY           SKY/WX    TMP DP  RH WIND       PRES   REMARKS
MEMPHIS INTL   FAIR       9   2  73 N6        30.72R WCI  -1
NWS MEMPHIS      N/A      6 N/A N/A MISG        N/A
JACKSON        CLOUDY    10   5  80 N10       30.70S WCI  -4
DYERSBURG      LGT SNOW   7   4  87 CALM      30.73S FOG
SOMERVILLE     CLOUDY     5   1  85 N6        30.69R WCI  -6
COVINGTON      CLOUDY     5   3  92 NW6       30.74R WCI  -6
UNION CITY     CLOUDY     9   5  85 N7        30.72R WCI  -3
BOLIVAR        CLOUDY     9   5  85 N7G13     30.68S WCI  -3
PARIS          CLOUDY     7   3  85 N6        30.67S WCI  -3
HUNTINGDON     CLOUDY     9   5  85 N3        30.68S
LEXINGTON      CLOUDY     9   5  85 N7        30.68S WCI  -3
SELMER         CLOUDY     7   3  85 N8        30.66R WCI  -6
SAVANNAH       CLOUDY    10   5  79 N9G15     30.67R WCI  -2
$$

TNZ008-025-027-028-033-062-065-066-171500-
NORTH MIDDLE TENNESSEE

CITY           SKY/WX    TMP DP  RH WIND       PRES   REMARKS
NASHVILLE      LGT SNOW  11   5  77 N10       30.64R FOG     WCI  -3
PORTLAND       CLOUDY     9   5  85 N12       30.61R FOG     WCI  -6
CLARKSVILLE    LGT SNOW  10   4  76 N8        30.66S WCI  -2
SMYRNA         LGT SNOW  10   6  84 N9        30.65R FOG     WCI  -3
COOKEVILLE     CLOUDY     5   1  85 N9        30.55R FOG     WCI  -9
GALLATIN       CLOUDY    10   5  79 N9        30.66R HAZE    WCI  -2
CROSSVILLE     CLOUDY     3  -1  83 N10       30.43R FOG     WCI -12
$$

TNZ061-075-076-078-094-096-097-171500-
SOUTH MIDDLE TENNESSEE

CITY           SKY/WX    TMP DP  RH WIND       PRES   REMARKS
FAYETTEVILLE   CLOUDY     9   3  78 N8        30.56R HAZE    WCI  -4
TULLAHOMA      CLOUDY     5   1  85 N13       30.55R HAZE    WCI -12
WINCHESTER     CLOUDY     3   0  85 N7        30.56R WCI  -9
MCMINNVILLE    CLOUDY     5   1  85 N9        30.56R HAZE    WCI  -9
COLUMBIA       CLOUDY     9   5  85 N8        30.62R FOG     WCI  -4
SHELBYVILLE    CLOUDY     9   3  78 NW9       30.60R FOG     WCI  -5
$$

TNZ017-018-042-046-047-171500-
NORTHEAST TENNESSEE

CITY           SKY/WX    TMP DP  RH WIND       PRES   REMARKS
TRI CITIES     CLOUDY    15   9  76 N8        30.37R WCI   4
ELIZABETHTON   CLOUDY    18  12  79 NW7       30.33S WCI   8
$$

TNZ012-013-036-069-073-074-171500-
CENTRAL EAST TENNESSEE

CITY           SKY/WX    TMP DP  RH WIND       PRES   REMARKS
KNOXVILLE      LGT SNOW   9   2  73 N10       30.46R WCI  -5
OAK RIDGE      FAIR       8   4  83 CALM      30.50R
DOWNTOWN KNOXV CLOUDY    10   3  72 N6        30.49S WCI   1
GATLINBURG     CLOUDY    10   5  79 NW5       30.46R HAZE    WCI   2
MORRISTOWN     CLOUDY    10   5  79 VRB6      30.41R WCI   1
JACKSBORO      PTSUNNY    7   0  72 VRB5      30.52R WCI  -2
$$

TNZ083-085-099-171500-
SOUTHEAST TENNESSEE

CITY           SKY/WX    TMP DP  RH WIND       PRES   REMARKS
CHATTANOOGA    FAIR      10   0  63 NW10      30.52R WCI  -4
DAYTON         SUNNY      9   3  78 N6        30.51S WCI  -1
$$

SKY/WX REPORTED AS FAIR MEANS FEW OR NO CLOUDS BELOW
12 THOUSAND FEET.





USA.gov is the U.S. government's official web portal to all federal, state and local government web resources and services.